QPF
0.00 0.00 0.00 0.00 0.00 0.00 0.00 0.00 0.00 0.00 0.00 0.00 0.00 0.00 0.00 0.00 0.00 0.00 0.00 0.00 0.00 0.00 0.00 0.00 0.00 0.00 0.00 0.00 0.00 0.00 0.00 0.00 0.00 0.00 0.00 0.00 0.00 0.00 0.00 0.00 0.00 0.00 0.00 0.00 0.00
0.00 0.00 0.00 0.00 0.00 0.00 0.00 0.00 0.00 0.00 0.00 0.00 0.00 0.00 0.00 0.00 0.00 0.00 0.00 0.00 0.00 0.00 0.00 0.00 0.00 0.00 0.00 0.00 0.00 0.00 0.00 0.00 0.00 0.00 0.00 0.00 0.00 0.00 0.00 0.00 0.00 0.00 0.00 0.00 0.00
0.00 0.00 0.00 0.00 0.00 0.00 0.00 0.00 0.00 0.00 0.00 0.00 0.00 0.00 0.00 0.00 0.00 0.00 0.00 0.00 0.00 0.00 0.00 0.00 0.00 0.00 0.00 0.00 0.00 0.00 0.00 0.00 0.00 0.00 0.00 0.00 0.00 0.00 0.00 0.00 0.00 0.00 0.00 0.00 0.00
0.00 0.00 0.00 0.00 0.00 0.00 0.00 0.00 0.00 0.00 0.00 0.00 0.00 0.00 0.00 0.00 0.00 0.00 0.00 0.00 0.00 0.00 0.00 0.00 0.00 0.00 0.00 0.00 0.00 0.00 0.00 0.00 0.00 0.00 0.00 0.00 0.00 0.00 0.00 0.00 0.00 0.00 0.00 0.00 0.00
0.00 0.00 0.00 0.00 0.00 0.00 0.00 0.00 0.00 0.00 0.00 0.00 0.00 0.00 0.00 0.00 0.00 0.00 0.00 0.00 0.00 0.00 0.00 0.00 0.00 0.00 0.00 0.00 0.00 0.00 0.00 0.00 0.00 0.00 0.00 0.00 0.00 0.00 0.00 0.00 0.00 0.00 0.00 0.00 0.00
0.00 0.00 0.00 0.00 0.00 0.00 0.00 0.00 0.00 0.00 0.00 0.00 0.00 0.00 0.00 0.00 0.00 0.00 0.00 0.00 0.00 0.00 0.00 0.00 0.00 0.00 0.00 0.00 0.00 0.00 0.00 0.00 0.00 0.00 0.00 0.00 0.00 0.00 0.00 0.00 0.00 0.00 0.00 0.00 0.00
0.00 0.00 0.00 0.00 0.00 0.00 0.00 0.00 0.00 0.00 0.00 0.00 0.00 0.00 0.00 0.00 0.00 0.00 0.00 0.00 0.00 0.00 0.00 0.00 0.00 0.00 0.00 0.00 0.00 0.00 0.00 0.00 0.00 0.00 0.00 0.00 0.00 0.00 0.00 0.00 0.00 0.00 0.00 0.00 0.00
0.00 0.00 0.00 0.00 0.00 0.00 0.00 0.00 0.00 0.00 0.00 0.00 0.00 0.00 0.00 0.00 0.00 0.00 0.00 0.00 0.00 0.00 0.00 0.00 0.00 0.00 0.00 0.00 0.00 0.00 0.00 0.00 0.00 0.00 0.00 0.00 0.00 0.00 0.00 0.00 0.00 0.00 0.00 0.00 0.00
0.00 0.00 0.00 0.00 0.00 0.00 0.00 0.00 0.00 0.00 0.00 0.00 0.00 0.00 0.00 0.00 0.00 0.00 0.00 0.00 0.00 0.00 0.00 0.00 0.00 0.00 0.00 0.00 0.00 0.00 0.00 0.00 0.00 0.00 0.00 0.00 0.00 0.00 0.00 0.00 0.00 0.00 0.00 0.00 0.00
0.00 0.00 0.00 0.00 0.00 0.00 0.00 0.00 0.00 0.00 0.00 0.00 0.00 0.00 0.00 0.00 0.00 0.00 0.00 0.00 0.00 0.00 0.00 0.00 0.00 0.00 0.00 0.00 0.00 0.00 0.00 0.00 0.00 0.00 0.00 0.00 0.00 0.00 0.01 0.00 0.00 0.00 0.00 0.00 0.00
0.00 0.00 0.00 0.00 0.00 0.00 0.00 0.00 0.00 0.00 0.00 0.00 0.00 0.00 0.00 0.00 0.00 0.00 0.00 0.00 0.00 0.00 0.00 0.00 0.00 0.00 0.00 0.00 0.00 0.00 0.00 0.00 0.00 0.00 0.00 0.00 0.00 0.00 0.01 0.04 0.00 0.00 0.00 0.00 0.00
0.00 0.00 0.00 0.00 0.00 0.00 0.00 0.00 0.00 0.00 0.00 0.00 0.00 0.00 0.00 0.00 0.00 0.00 0.00 0.00 0.00 0.00 0.00 0.00 0.00 0.00 0.00 0.00 0.00 0.00 0.00 0.00 0.00 0.00 0.00 0.00 0.00 0.00 0.04 0.02 0.00 0.00 0.00 0.00 0.00
0.00 0.00 0.00 0.00 0.00 0.00 0.00 0.00 0.00 0.00 0.00 0.00 0.00 0.00 0.00 0.00 0.00 0.00 0.00 0.00 0.00 0.00 0.00 0.00 0.00 0.00 0.00 0.00 0.00 0.00 0.00 0.00 0.00 0.00 0.00 0.00 0.00 0.00 0.01 0.02 0.04 0.02 0.00 0.00 0.00
0.00 0.00 0.00 0.00 0.00 0.00 0.00 0.00 0.00 0.00 0.00 0.00 0.00 0.00 0.00 0.00 0.00 0.00 0.00 0.00 0.00 0.00 0.00 0.00 0.00 0.00 0.00 0.00 0.00 0.00 0.00 0.00 0.00 0.00 0.00 0.00 0.00 0.00 0.00 0.00 0.00 0.01 0.01 0.00 0.00
0.00 0.00 0.00 0.00 0.00 0.00 0.00 0.00 0.00 0.00 0.00 0.00 0.00 0.00 0.00 0.00 0.00 0.00 0.00 0.00 0.00 0.00 0.00 0.00 0.00 0.00 0.00 0.00 0.00 0.00 0.00 0.00 0.00 0.00 0.00 0.00 0.00 0.00 0.00 0.00 0.00 0.01 0.03 0.02 0.00
0.00 0.00 0.00 0.00 0.00 0.00 0.00 0.00 0.00 0.00 0.00 0.00 0.00 0.00 0.00 0.00 0.00 0.00 0.00 0.00 0.00 0.00 0.00 0.00 0.00 0.00 0.00 0.00 0.00 0.00 0.00 0.00 0.00 0.00 0.00 0.00 0.00 0.00 0.00 0.00 0.00 0.01 0.01 0.00 0.00
0.00 0.00 0.00 0.00 0.00 0.00 0.00 0.00 0.00 0.00 0.00 0.00 0.00 0.00 0.00 0.00 0.00 0.00 0.00 0.00 0.00 0.00 0.00 0.00 0.00 0.00 0.00 0.00 0.00 0.00 0.00 0.00 0.00 0.00 0.00 0.00 0.00 0.00 0.00 0.00 0.00 0.00 0.00 0.00 0.00
0.00 0.00 0.00 0.00 0.00 0.00 0.00 0.00 0.00 0.00 0.00 0.00 0.00 0.00 0.00 0.00 0.00 0.00 0.00 0.00 0.00 0.00 0.00 0.00 0.00 0.00 0.00 0.00 0.00 0.00 0.00 0.00 0.00 0.00 0.00 0.00 0.00 0.00 0.00 0.00 0.00 0.00 0.00 0.01 0.01
0.00 0.00 0.00 0.00 0.00 0.00 0.00 0.00 0.00 0.00 0.00 0.00 0.00 0.00 0.00 0.00 0.00 0.00 0.00 0.00 0.00 0.00 0.00 0.00 0.00 0.00 0.00 0.00 0.00 0.00 0.00 0.00 0.00 0.00 0.00 0.00 0.00 0.00 0.00 0.00 0.00 0.00 0.00 0.01 0.02
0.00 0.00 0.00 0.00 0.00 0.00 0.00 0.00 0.00 0.00 0.00 0.00 0.00 0.00 0.00 0.00 0.00 0.00 0.00 0.00 0.00 0.00 0.00 0.00 0.00 0.00 0.00 0.00 0.00 0.00 0.00 0.00 0.00 0.00 0.00 0.00 0.00 0.00 0.00 0.00 0.00 0.00 0.00 0.00 0.00
0.00 0.00 0.00 0.00 0.00 0.00 0.00 0.00 0.00 0.00 0.00 0.00 0.00 0.00 0.00 0.00 0.00 0.00 0.00 0.00 0.00 0.00 0.00 0.00 0.00 0.00 0.00 0.00 0.00 0.00 0.00 0.00 0.00 0.00 0.00 0.00 0.00 0.00 0.00 0.00 0.00 0.00 0.00 0.00 0.00
0.00 0.00 0.00 0.00 0.00 0.00 0.00 0.00 0.00 0.00 0.00 0.00 0.00 0.00 0.00 0.00 0.00 0.00 0.00 0.00 0.00 0.00 0.00 0.00 0.00 0.00 0.00 0.00 0.00 0.00 0.00 0.00 0.00 0.00 0.00 0.00 0.00 0.00 0.00 0.00 0.00 0.00 0.00 0.00 0.00
0.00 0.00 0.00 0.00 0.00 0.00 0.00 0.00 0.00 0.00 0.00 0.00 0.00 0.00 0.00 0.00 0.00 0.00 0.00 0.00 0.00 0.00 0.00 0.00 0.00 0.00 0.00 0.00 0.00 0.00 0.00 0.00 0.00 0.00 0.00 0.00 0.00 0.00 0.00 0.00 0.00 0.00 0.00 0.00 0.00
0.00 0.00 0.00 0.00 0.00 0.00 0.00 0.00 0.00 0.00 0.00 0.00 0.00 0.00 0.00 0.00 0.00 0.00 0.00 0.00 0.00 0.00 0.00 0.00 0.00 0.00 0.00 0.00 0.00 0.00 0.00 0.00 0.00 0.00 0.00 0.00 0.00 0.00 0.00 0.00 0.00 0.00 0.00 0.00 0.00
0.00 0.00 0.00 0.00 0.00 0.00 0.00 0.00 0.00 0.00 0.00 0.00 0.00 0.00 0.00 0.00 0.00 0.00 0.00 0.00 0.00 0.00 0.00 0.00 0.00 0.00 0.00 0.00 0.00 0.00 0.00 0.00 0.00 0.00 0.00 0.00 0.00 0.00 0.00 0.00 0.00 0.00 0.00 0.00 0.00
0.00 0.00 0.00 0.00 0.00 0.00 0.00 0.00 0.00 0.00 0.00 0.00 0.00 0.00 0.00 0.00 0.00 0.00 0.00 0.00 0.00 0.00 0.00 0.00 0.00 0.00 0.00 0.00 0.00 0.00 0.00 0.00 0.00 0.00 0.00 0.00 0.00 0.00 0.00 0.00 0.00 0.00 0.00 0.00 0.00
0.00 0.00 0.00 0.00 0.00 0.00 0.00 0.00 0.00 0.00 0.00 0.00 0.00 0.00 0.00 0.00 0.00 0.00 0.00 0.00 0.00 0.00 0.00 0.00 0.00 0.00 0.00 0.00 0.00 0.00 0.00 0.00 0.00 0.00 0.00 0.00 0.00 0.00 0.00 0.00 0.00 0.00 0.00 0.00 0.00
MSLP
1021.89 1021.26 1020.67 1020.10 1019.47 1018.80 1018.11 1017.48 1017.00 1016.60 1016.19 1015.75 1015.29 1014.80 1014.26 1013.64 1013.06 1012.41 1011.55 1008.56 1008.31 1007.95 1008.08 1008.03 1007.93 1008.15 1008.21 1008.29 1008.42 1008.84 1009.62 1009.58 1008.76 1008.08 1006.97 1006.47 1006.73 1006.92 1006.98 1007.03 1007.43 1007.83 1008.65 1008.88 1011.61
1021.82 1021.18 1020.54 1019.86 1019.16 1018.45 1017.78 1017.20 1016.71 1016.23 1015.84 1015.49 1015.06 1014.58 1014.08 1013.59 1012.87 1011.39 1007.82 1007.73 1007.72 1007.86 1008.11 1007.99 1008.05 1008.07 1008.33 1008.45 1008.37 1008.73 1009.18 1008.59 1007.66 1007.07 1006.70 1006.84 1006.88 1007.12 1007.32 1007.38 1007.78 1008.40 1008.82 1009.80 1011.02
1021.86 1021.16 1020.47 1019.70 1018.87 1018.15 1017.50 1016.95 1016.41 1015.89 1015.44 1015.09 1014.74 1014.26 1013.82 1013.58 1012.61 1008.41 1006.63 1007.23 1007.46 1007.85 1007.94 1007.93 1008.09 1008.19 1008.37 1008.23 1008.17 1008.28 1008.17 1007.57 1006.97 1006.78 1006.68 1006.92 1007.16 1007.21 1007.37 1007.83 1007.50 1008.00 1009.11 1010.34 1010.66
1022.00 1021.24 1020.43 1019.61 1018.76 1017.93 1017.21 1016.57 1015.99 1015.49 1015.04 1014.76 1014.51 1014.10 1013.66 1013.55 1011.10 1006.98 1006.73 1007.05 1007.37 1007.72 1007.99 1008.10 1008.22 1008.33 1008.33 1008.11 1007.70 1007.91 1007.27 1007.09 1006.64 1006.51 1007.00 1007.26 1007.10 1007.24 1006.92 1006.70 1006.61 1007.46 1008.56 1009.75 1010.35
1021.98 1021.19 1020.36 1019.47 1018.61 1017.74 1016.89 1016.18 1015.54 1015.00 1014.63 1014.40 1014.22 1013.98 1013.58 1012.76 1009.54 1006.82 1007.00 1007.23 1007.53 1007.79 1007.87 1008.03 1008.19 1008.15 1008.12 1007.82 1007.66 1007.53 1007.07 1006.93 1006.61 1006.74 1006.86 1006.94 1006.90 1007.05 1006.88 1007.19 1007.43 1007.72 1008.19 1009.25 1010.04
1021.95 1021.07 1020.17 1019.21 1018.23 1017.29 1016.41 1015.62 1014.92 1014.46 1014.12 1014.00 1013.89 1013.82 1013.56 1011.44 1007.14 1006.88 1007.10 1007.42 1007.46 1007.61 1007.68 1007.73 1007.77 1007.73 1007.81 1007.66 1007.67 1007.19 1006.96 1006.72 1006.42 1006.47 1006.62 1007.07 1007.40 1007.46 1006.84 1007.26 1007.75 1008.26 1007.86 1008.34 1009.18
1021.93 1021.02 1020.06 1018.99 1017.91 1016.83 1015.78 1014.80 1014.08 1013.65 1013.42 1013.42 1013.49 1013.50 1012.89 1008.77 1006.94 1007.17 1007.43 1007.06 1007.17 1007.19 1007.44 1007.29 1007.19 1007.67 1007.62 1007.58 1007.30 1007.15 1007.23 1006.50 1006.47 1006.06 1006.61 1006.98 1008.22 1007.75 1007.14 1007.22 1007.56 1008.09 1008.23 1009.25 1009.37
1021.87 1020.87 1019.80 1018.71 1017.57 1016.33 1015.01 1013.89 1012.96 1012.29 1012.41 1012.74 1013.02 1013.14 1011.25 1007.44 1007.14 1007.08 1007.07 1006.77 1006.55 1006.83 1006.86 1006.69 1006.85 1007.35 1007.59 1007.61 1007.77 1007.78 1007.68 1007.34 1006.46 1006.09 1006.45 1006.40 1007.63 1007.03 1007.46 1007.40 1007.58 1007.76 1008.21 1008.68 1009.06
1021.78 1020.71 1019.60 1018.44 1017.20 1015.82 1014.26 1013.09 1012.29 1011.68 1011.97 1012.34 1012.84 1012.73 1009.66 1006.95 1006.93 1005.83 1006.23 1006.53 1006.25 1006.42 1006.57 1006.67 1006.95 1007.73 1008.12 1008.64 1009.13 1008.95 1008.70 1007.95 1006.96 1006.04 1006.46 1007.13 1007.42 1007.31 1007.77 1008.14 1008.22 1007.95 1007.96 1008.30 1009.08
1021.55 1020.44 1019.28 1018.09 1016.87 1015.50 1013.75 1012.68 1012.22 1012.14 1012.40 1012.49 1012.26 1012.39 1008.72 1006.84 1005.89 1005.30 1005.58 1005.95 1006.17 1006.46 1006.66 1006.96 1007.93 1008.57 1009.36 1009.78 1009.81 1009.75 1009.25 1008.38 1007.62 1007.14 1006.81 1007.43 1007.43 1007.37 1007.57 1008.11 1007.89 1007.63 1007.70 1008.22 1008.75
1021.31 1020.20 1019.05 1017.89 1016.63 1015.40 1013.90 1012.91 1013.42 1012.94 1012.66 1011.70 1011.00 1009.74 1008.19 1007.00 1005.75 1005.26 1005.27 1005.82 1006.26 1006.78 1007.46 1007.66 1008.42 1009.03 1009.03 1009.29 1009.44 1009.38 1009.24 1008.97 1008.39 1007.65 1007.58 1007.55 1007.74 1007.68 1007.73 1008.17 1008.44 1008.28 1008.12 1008.17 1008.61
1021.09 1020.00 1018.87 1017.69 1016.53 1015.47 1014.75 1015.22 1016.31 1016.47 1013.99 1010.89 1010.03 1009.61 1008.29 1008.03 1007.15 1005.63 1005.18 1005.90 1006.74 1007.34 1007.73 1008.52 1008.34 1008.19 1008.61 1009.14 1009.42 1009.59 1009.52 1009.21 1008.48 1007.78 1007.78 1007.68 1007.87 1007.46 1007.86 1007.77 1007.23 1007.07 1007.45 1008.12 1008.96
1021.00 1019.82 1018.70 1017.33 1016.30 1015.91 1016.07 1016.15 1016.07 1015.92 1014.83 1010.33 1008.96 1008.05 1007.15 1007.37 1006.94 1005.88 1005.47 1005.77 1006.46 1007.42 1007.76 1008.05 1007.79 1007.66 1008.43 1008.79 1009.14 1009.11 1009.32 1009.04 1008.73 1007.86 1007.78 1007.84 1008.15 1008.14 1008.06 1007.64 1007.39 1007.21 1007.39 1007.81 1008.03
1020.90 1019.72 1018.61 1017.39 1016.61 1016.89 1016.16 1015.73 1015.68 1015.65 1014.38 1009.63 1007.78 1005.97 1005.99 1006.03 1006.02 1005.00 1005.00 1005.57 1006.39 1006.93 1007.68 1007.92 1007.19 1007.47 1007.95 1008.21 1008.47 1008.62 1008.24 1008.29 1008.45 1008.67 1008.83 1008.12 1008.55 1008.25 1007.50 1007.43 1007.19 1006.91 1007.27 1008.00 1009.07
1020.80 1019.56 1018.59 1017.74 1017.69 1017.27 1016.29 1015.66 1015.36 1015.20 1012.82 1008.18 1006.56 1005.06 1005.31 1005.55 1005.21 1004.78 1004.76 1005.33 1006.16 1006.86 1007.51 1007.28 1006.95 1007.06 1007.23 1007.11 1007.63 1007.72 1007.43 1007.98 1008.25 1008.89 1008.98 1008.83 1009.27 1007.69 1007.64 1007.69 1007.04 1006.90 1007.49 1008.07 1008.83
1020.62 1019.26 1018.49 1017.83 1017.81 1016.62 1016.00 1015.57 1015.28 1014.92 1011.46 1008.59 1007.26 1006.60 1006.10 1005.68 1005.40 1005.12 1005.04 1005.41 1006.03 1007.03 1007.37 1007.26 1006.61 1006.41 1006.35 1006.42 1006.79 1006.95 1007.43 1008.24 1008.80 1009.58 1009.72 1008.68 1009.13 1008.10 1007.46 1006.44 1006.33 1006.67 1007.06 1007.52 1008.19
1020.37 1018.90 1018.07 1017.72 1017.22 1016.06 1015.88 1015.56 1015.36 1014.09 1011.46 1010.73 1009.54 1008.68 1008.36 1007.63 1007.10 1007.04 1006.88 1008.36 1009.08 1008.84 1008.30 1007.83 1006.87 1006.27 1006.05 1006.37 1006.71 1007.05 1008.01 1009.45 1010.17 1010.44 1009.94 1009.11 1009.26 1007.16 1005.93 1005.38 1005.27 1005.44 1005.93 1006.59 1007.28
1020.18 1018.73 1018.07 1017.32 1016.60 1016.21 1015.91 1015.52 1015.04 1014.05 1013.16 1011.89 1011.00 1009.97 1009.80 1009.55 1009.16 1009.29 1009.76 1010.84 1011.08 1010.84 1010.12 1009.15 1007.95 1006.55 1005.80 1005.90 1006.35 1006.95 1007.90 1008.95 1010.04 1010.55 1010.57 1009.51 1008.35 1005.79 1005.15 1004.64 1004.71 1004.98 1005.43 1005.97 1006.54
1020.11 1019.05 1018.30 1017.13 1016.34 1016.12 1016.32 1015.62 1015.85 1015.04 1014.38 1013.20 1012.05 1011.72 1011.61 1011.23 1011.07 1010.92 1012.68 1013.67 1013.36 1012.95 1012.56 1011.20 1009.25 1007.36 1006.38 1005.89 1006.09 1007.01 1007.87 1008.09 1009.41 1010.31 1010.46 1009.67 1007.82 1006.18 1005.49 1005.49 1005.42 1005.63 1006.00 1006.41 1006.85
1021.04 1020.32 1018.63 1016.97 1016.16 1016.03 1016.38 1016.13 1016.24 1015.76 1014.87 1014.11 1013.83 1013.77 1013.62 1013.37 1012.84 1012.83 1014.37 1015.96 1015.37 1014.63 1013.66 1013.27 1011.49 1008.99 1007.70 1006.72 1006.76 1006.81 1007.59 1008.84 1009.69 1010.51 1010.79 1009.88 1008.81 1007.75 1007.03 1006.76 1006.64 1006.89 1007.22 1006.98 1006.50
1021.99 1020.69 1018.40 1016.98 1016.15 1016.70 1017.99 1017.69 1016.98 1016.44 1015.82 1015.64 1015.58 1015.34 1015.42 1015.32 1014.98 1015.01 1016.52 1017.07 1016.68 1015.72 1014.90 1014.45 1013.28 1010.93 1009.23 1009.15 1009.08 1008.50 1008.82 1009.26 1009.68 1010.27 1010.37 1010.57 1010.16 1009.32 1008.71 1008.51 1008.43 1008.25 1007.92 1007.42 1006.54
1023.42 1022.35 1019.84 1018.15 1019.32 1020.43 1020.33 1019.38 1017.68 1017.57 1016.92 1016.80 1016.87 1016.96 1016.93 1016.77 1016.55 1016.83 1017.99 1018.42 1018.02 1017.11 1016.88 1015.94 1015.00 1013.59 1011.92 1011.24 1010.57 1010.55 1011.05 1010.91 1010.88 1011.30 1010.88 1010.48 1010.60 1010.13 1009.40 1009.67 1009.46 1009.27 1008.73 1008.04 1007.34
1025.36 1024.43 1021.69 1020.81 1023.22 1023.24 1021.93 1020.41 1019.40 1018.74 1018.31 1018.18 1018.39 1018.47 1018.30 1018.26 1018.27 1018.43 1018.89 1019.49 1018.99 1018.52 1018.65 1017.42 1016.40 1015.49 1013.68 1012.92 1012.31 1012.75 1012.96 1012.72 1012.27 1012.06 1011.64 1011.19 1010.42 1010.03 1009.72 1010.04 1010.15 1010.00 1009.71 1008.94 1007.92
1026.34 1026.08 1025.07 1024.93 1025.61 1024.91 1023.70 1022.30 1020.98 1020.08 1019.76 1019.71 1019.93 1019.61 1019.42 1019.51 1019.53 1019.95 1020.16 1020.18 1020.03 1019.77 1019.32 1018.32 1017.95 1017.38 1016.71 1016.03 1015.67 1014.88 1014.48 1014.04 1013.73 1013.42 1012.81 1011.76 1011.14 1010.33 1010.62 1010.74 1010.91 1011.00 1010.38 1009.92 1009.07
1027.79 1028.41 1028.23 1027.58 1026.47 1025.82 1024.74 1023.99 1022.91 1022.18 1021.41 1020.98 1020.98 1021.12 1021.09 1020.95 1020.73 1020.89 1020.98 1020.84 1020.66 1020.53 1020.43 1020.36 1019.75 1018.95 1018.23 1017.45 1016.72 1016.08 1015.60 1015.09 1014.60 1014.17 1013.96 1012.41 1012.79 1012.56 1012.01 1012.14 1012.41 1012.24 1011.64 1011.00 1010.36
1029.13 1029.31 1028.72 1028.21 1027.36 1026.49 1025.56 1025.18 1024.51 1023.71 1023.13 1022.72 1022.48 1022.28 1022.08 1022.25 1022.47 1022.21 1021.94 1021.69 1021.41 1021.05 1021.30 1021.28 1020.77 1020.17 1019.33 1018.39 1017.76 1016.78 1016.00 1015.63 1015.20 1014.94 1014.43 1014.12 1013.67 1013.42 1013.20 1013.26 1013.25 1013.57 1013.40 1012.91 1012.28
1029.30 1029.37 1029.28 1028.49 1027.78 1027.27 1026.57 1026.06 1025.38 1024.89 1024.00 1023.73 1023.64 1023.08 1022.70 1022.73 1022.58 1022.41 1022.24 1022.03 1021.66 1021.59 1021.55 1021.63 1021.38 1020.92 1019.91 1019.39 1018.64 1017.70 1016.20 1015.65 1015.34 1014.93 1014.92 1015.11 1015.46 1015.01 1014.34 1014.62 1014.94 1014.71 1014.46 1014.26 1013.81
Thickness
5609 5612 5616 5620 5624 5629 5634 5638 5642 5644 5646 5649 5652 5655 5658 5662 5666 5671 5674 5702 5706 5712 5714 5715 5717 5715 5717 5714 5720 5714 5688 5689 5708 5711 5729 5748 5741 5747 5759 5759 5758 5760 5754 5758 5741
5602 5606 5610 5615 5620 5625 5630 5634 5637 5641 5643 5646 5649 5652 5655 5658 5663 5669 5703 5703 5704 5704 5704 5704 5703 5706 5699 5704 5705 5697 5682 5698 5722 5730 5732 5734 5737 5738 5741 5749 5748 5749 5757 5752 5744
5594 5599 5603 5609 5614 5620 5625 5629 5633 5636 5640 5643 5646 5649 5652 5654 5661 5691 5708 5703 5701 5698 5699 5699 5699 5698 5692 5699 5698 5694 5691 5714 5727 5732 5732 5729 5727 5738 5733 5729 5748 5747 5748 5743 5744
5584 5588 5594 5600 5607 5613 5618 5623 5628 5631 5635 5638 5641 5644 5648 5648 5661 5700 5703 5701 5697 5693 5690 5687 5686 5682 5682 5685 5697 5689 5708 5715 5725 5730 5719 5716 5728 5728 5739 5745 5760 5758 5753 5744 5743
5576 5581 5586 5592 5599 5606 5612 5617 5622 5627 5630 5632 5635 5637 5641 5650 5665 5697 5696 5694 5692 5688 5682 5679 5676 5675 5675 5683 5688 5685 5703 5710 5718 5718 5718 5719 5722 5727 5734 5737 5747 5750 5750 5747 5745
5570 5574 5580 5587 5594 5601 5608 5614 5619 5622 5625 5627 5628 5630 5633 5646 5687 5690 5690 5687 5686 5683 5679 5677 5674 5676 5676 5679 5676 5688 5695 5700 5710 5714 5713 5708 5710 5721 5732 5732 5737 5739 5746 5749 5747
5564 5569 5574 5581 5589 5598 5606 5614 5619 5621 5623 5623 5623 5624 5627 5657 5681 5682 5680 5682 5683 5681 5674 5677 5679 5671 5674 5673 5683 5686 5683 5696 5702 5715 5703 5708 5690 5702 5720 5730 5734 5734 5738 5738 5744
5557 5563 5569 5577 5585 5595 5605 5614 5620 5625 5624 5621 5619 5618 5629 5664 5672 5674 5674 5676 5681 5678 5678 5680 5678 5670 5668 5673 5665 5669 5671 5668 5694 5706 5702 5707 5683 5710 5709 5719 5725 5729 5733 5736 5738
5549 5555 5563 5570 5580 5591 5602 5611 5617 5622 5619 5616 5613 5612 5630 5662 5661 5674 5675 5669 5674 5675 5674 5675 5672 5658 5655 5642 5634 5633 5636 5656 5678 5700 5693 5690 5681 5699 5697 5700 5711 5720 5726 5731 5726
5542 5548 5556 5563 5573 5584 5595 5604 5607 5609 5607 5607 5612 5610 5639 5655 5664 5671 5670 5668 5664 5663 5660 5659 5642 5634 5626 5624 5613 5626 5634 5648 5662 5677 5684 5678 5678 5689 5693 5693 5705 5717 5726 5728 5729
5534 5540 5547 5554 5564 5572 5584 5592 5583 5593 5594 5608 5617 5623 5636 5646 5658 5661 5663 5657 5655 5649 5634 5643 5628 5620 5629 5628 5632 5636 5634 5633 5644 5661 5670 5670 5671 5677 5686 5684 5688 5701 5710 5720 5725
5526 5531 5537 5544 5552 5559 5565 5560 5552 5551 5572 5603 5607 5613 5623 5628 5630 5646 5656 5644 5635 5625 5631 5625 5619 5634 5634 5630 5627 5623 5622 5621 5638 5652 5654 5656 5657 5672 5678 5684 5698 5706 5709 5711 5707
5519 5522 5528 5535 5541 5543 5541 5542 5543 5546 5553 5593 5608 5616 5619 5623 5622 5630 5643 5638 5631 5620 5620 5612 5631 5635 5629 5626 5623 5621 5616 5621 5627 5646 5651 5652 5645 5651 5666 5678 5689 5697 5705 5709 5710
5509 5513 5517 5523 5528 5521 5528 5532 5534 5536 5535 5596 5604 5618 5619 5623 5620 5635 5639 5632 5623 5619 5615 5613 5631 5630 5623 5620 5620 5611 5626 5629 5628 5628 5617 5643 5616 5642 5662 5666 5678 5691 5696 5697 5692
5495 5500 5504 5508 5505 5506 5515 5520 5524 5528 5528 5598 5601 5620 5618 5615 5624 5627 5632 5626 5613 5617 5612 5613 5626 5617 5615 5623 5622 5618 5631 5622 5625 5617 5619 5629 5616 5640 5649 5651 5667 5678 5676 5681 5685
5480 5485 5488 5492 5491 5497 5502 5507 5512 5511 5520 5570 5584 5584 5596 5606 5612 5617 5618 5621 5618 5609 5608 5608 5623 5624 5620 5627 5623 5632 5628 5610 5601 5597 5596 5624 5611 5613 5637 5656 5669 5671 5672 5677 5679
5463 5467 5469 5470 5472 5484 5486 5492 5501 5479 5545 5541 5547 5560 5562 5573 5583 5584 5592 5573 5565 5582 5584 5603 5609 5619 5623 5615 5618 5616 5598 5579 5582 5580 5586 5609 5600 5628 5656 5667 5674 5674 5677 5678 5680
5438 5445 5446 5452 5459 5464 5470 5484 5478 5506 5506 5526 5532 5540 5547 5549 5559 5557 5555 5548 5552 5555 5568 5575 5582 5604 5616 5609 5604 5599 5594 5571 5576 5571 5578 5602 5603 5638 5655 5665 5671 5676 5674 5675 5676
5421 5428 5432 5439 5446 5451 5456 5451 5452 5475 5485 5497 5514 5517 5515 5529 5536 5544 5517 5508 5529 5531 5538 5546 5572 5591 5603 5613 5608 5595 5581 5599 5581 5579 5573 5584 5611 5639 5647 5651 5655 5657 5658 5657 5661
5404 5403 5415 5429 5438 5442 5443 5451 5448 5455 5466 5480 5478 5487 5482 5491 5509 5520 5501 5483 5490 5509 5521 5520 5542 5573 5581 5596 5594 5598 5596 5576 5565 5562 5562 5576 5594 5602 5620 5619 5622 5626 5629 5637 5652
5386 5391 5411 5422 5429 5425 5403 5422 5435 5441 5444 5446 5448 5457 5461 5463 5476 5489 5467 5468 5470 5485 5500 5498 5517 5547 5565 5556 5558 5566 5565 5569 5572 5563 5565 5567 5570 5588 5590 5598 5602 5608 5618 5627 5643
5363 5365 5394 5406 5388 5372 5375 5398 5425 5418 5424 5426 5429 5434 5438 5442 5454 5457 5435 5442 5453 5464 5456 5478 5483 5502 5531 5537 5546 5545 5541 5550 5551 5559 5556 5565 5565 5576 5584 5586 5593 5597 5606 5615 5627
5347 5343 5372 5377 5330 5329 5365 5391 5398 5401 5402 5405 5403 5408 5417 5415 5426 5428 5428 5424 5432 5439 5431 5448 5465 5474 5516 5519 5522 5514 5520 5527 5534 5538 5546 5548 5557 5572 5574 5576 5581 5584 5590 5600 5612
5330 5320 5331 5334 5328 5335 5342 5359 5372 5385 5388 5388 5385 5392 5398 5398 5404 5399 5401 5409 5410 5415 5428 5434 5443 5451 5463 5465 5474 5487 5497 5507 5514 5511 5518 5532 5548 5556 5554 5559 5564 5565 5575 5583 5595
5309 5296 5309 5297 5313 5324 5335 5340 5346 5349 5365 5369 5368 5367 5369 5374 5381 5379 5385 5391 5396 5401 5397 5399 5408 5418 5425 5440 5454 5466 5474 5484 5492 5505 5500 5531 5523 5527 5536 5538 5539 5545 5555 5566 5574
5291 5294 5297 5300 5309 5313 5321 5322 5325 5331 5341 5342 5345 5348 5350 5349 5350 5353 5362 5369 5373 5380 5377 5379 5383 5393 5405 5419 5434 5443 5459 5465 5472 5480 5488 5497 5509 5496 5511 5514 5515 5519 5529 5537 5546
5293 5291 5293 5295 5298 5300 5303 5310 5314 5318 5327 5329 5325 5329 5335 5336 5342 5345 5347 5353 5361 5361 5361 5363 5367 5376 5387 5400 5410 5403 5442 5456 5462 5472 5475 5477 5457 5467 5483 5491 5486 5495 5506 5513 5522